Location: Astronomy Adventures Observing Site
(35.3995°N, 106.1279°W)
Time: 19:06:16
(UTC-06:00)

Envisat - Pass Details

Date: 28 January 2022
Orbit: 764 x 765 km, 98.2° (Epoch: 27 May)

Event Time Altitude Azimuth Distance (km) Brightness Sun altitude
Rises 04:28:08 0° 19° (NNE) 3,234 6.5 -32.4°
Reaches altitude 10° 04:30:32 10° 25° (NNE) 2,304 5.7 -31.9°
Maximum altitude 04:35:26 48° 99° (E) 993 3.8 -30.9°
Drops below altitude 10° 04:40:18 10° 174° (S) 2,291 5.5 -29.9°
Sets 04:42:40 0° 180° (S) 3,213 6.3 -29.4°
